NOAA 16 DEB

Satellite information

Favourite Embed

Satellite Type and Status

DEBRISIN ORBIT

Key statistics

Satellite NOAA 16 DEB at a glance.

Uptime

9056

Days in orbit

Revolutions

≈ 14.2

Per day

Orbit

SSO

Sun Synchronous Orbit

Inclination

98.8

Latest

Satellite identification and parameters

Extended collection of information and parameters for NOAA 16 DEB.

Object identification

Identified? True

Debris? True

Object name: NOAA 16 DEB

International designator: 2000-055FY

Object number (NORAD): 41272

Object ID (CCSDS): 41272

Country: UNITED STATES OF AMERICA (US)

Current information (Y/N): Y

RCS size: SMALL

Orbital parameters

Period: 101.192 minutes

Inclination: 98.7599 deg

SMA: 7193.258 km

Apoapsis: 835.741 km

Periapsis: 794.505 km

RAAN: 250.8749 deg

Eccentricy: 0.0028663

Argument of periapsis: 56.5908 deg

Mean anomaly: 303.8006 deg

Mean motion: 14.23030879 rev/day

Mean motion (dot): 0.00003136 rev/day2

B* drag term: 0.001405 1/REarth

Two-line elements (TLE)

Creation date: July 5, 2025, 5:45 p.m.

Reference frame: TEME

Reference center: EARTH

Epoch: July 5, 2025, 2:44 a.m. UTC

TLE line 0: 0 NOAA 16 DEB

TLE line 1: 1 41272U 00055FY 25186.11392790 .00003136 00000-0 14050-2 0 9995

TLE line 2: 2 41272 98.7599 250.8749 0028663 56.5908 303.8006 14.23030879490929

Live tracking on map

Real-time ground track for satellite NOAA 16 DEB.

In-orbit conjunctions

A list of the most updated potential collisions computed for object NOAA 16 DEB.

Target Orbit TCA Probability of collision Miss distance Type
FENGYUN 1C DEB SSO 2024-09-28 02:59:57 0.0001605744 545.0 (m) DEBRIS
DMSP 5D-2 F8 (USA 26) SSO 2024-07-04 08:32:57 0.0001007458 688.0 (m) PAYLOAD

Associated space launch

The NOAA K, L and M POES satellites begin the fifth generation of improved environmental monitoring in support of NOAA missions. The instrument payload has significant improvements and additions/deletions. The instrument changes have effected the spacecraft subsystems and data formats.

NOAA 16 DEB was lifted into orbit during the mission ‘Titan II SLV | NOAA 16’, on board a Titan II SLV space rocket.

The launch took place on Sept. 21, 2000, 10:22 a.m. from Space Launch Complex 4W.

For more information about the launch, click the button.

Launch to space Titan II SLV | NOAA 16
Titan II SLV | NOAA 16

Agency: N/A

Status: Launch Successful

Launch date: Sept. 21, 2000, 10:22 a.m. UTC

Rocket: Titan II SLV

Launch pad: Space Launch Complex 4W

Location: Vandenberg SFB, CA, USA

...

Latest news about this satellite

There are no fresh news available about this satellite. Check back as we update our databases every day.


Newsletter sign-up

Weekly statistics, charts and insights to help you stay on top of the space industry.